Simultaneous Nadir Overpasses (SNOs) Predictions

Prediction of SNOs between NOAA-19 and METOP-C Satellite Orbit:

Table of predicted SNOs for the next 14.0 days since TLE Epoch: 5/15/2021
Index Date (NOAA-19) Time (NOAA-19) Lat,Lon (NOAA-19) SZA (NOAA-19 ) Date (METOP-C) Time (METOP-C) Lat,Lon (METOP-C) SZA (METOP-C ) Distance(km) Time Diff (sec)
1 05/25/2021 22:27:20 -80.51, 51.42 119.39 05/25/2021 22:28:26 -80.51, 51.25 119.37 3.18 66
2 05/25/2021 23:18:25 80.50,-141.24 60.62 05/25/2021 23:19:06 80.51,-141.39 60.63 3.17 41
3 05/26/2021 00:09:21 -80.52, 25.69 119.41 05/26/2021 00:09:48 -80.50, 25.77 119.41 2.09 27
4 05/26/2021 01:00:26 80.51,-166.96 60.60 05/26/2021 01:00:28 80.50,-166.87 60.60 1.77 2
5 05/26/2021 01:51:21 -80.51, 0.32 119.41 05/26/2021 01:51:10 -80.49, 0.29 119.44 2.24 11
6 05/26/2021 02:42:26 80.50, 167.67 60.59 05/26/2021 02:41:50 80.49, 167.65 60.56 1.34 36
7 05/26/2021 03:33:20 -80.49, -24.72 119.41 05/26/2021 03:32:31 -80.50, -24.87 119.42 3.30 49



Historial Predications of SNOs between NOAA-19 and METOP-C
